Regional Weather Roundup
Issued by NWS

Home | Current Version | Previous Version | Graphics & Text | Print | Product List | Glossary On
Versions: 1 2 3 4 5 6 7 8 9 10 11 12 13 14 15 16 17 18 19 20 21 22 23 24 25 26 27 28 29 30 31 32 33 34 35 36 37 38 39 40 41 42 43 44 45 46 47 48 49 50
000
ASUS45 KCYS 261110
RWRWY

WYOMING REGIONAL WEATHER ROUNDUP
NATIONAL WEATHER SERVICE CHEYENNE WY
500 AM MDT SAT JUL 26 2014

NOTE:  "FAIR" INDICATES FEW OR NO CLOUDS BELOW 12,000 FEET
WITH NO SIGNIFICANT WEATHER AND/OR OBSTRUCTIONS TO VISIBILITY.

WYZ001-261200-
YELLOWSTONE NATIONAL PARK

CITY           SKY/WX    TMP DP  RH WIND       PRES   REMARKS
LK YELLOWSTONE   N/A     34  29  82 NW5       30.33R WCI  30
W YELLOWSTONE  NOT AVBL

$$
WYZ002>013-054>058-071-098>099-261200-
NORTHERN WYOMING

CITY           SKY/WX    TMP DP  RH WIND       PRES   REMARKS
JACKSON        CLEAR     37  32  81 NE3       30.25R
CODY           NOT AVBL
GREYBULL       CLEAR     61  30  31 CALM      30.06R
WORLAND        CLEAR     62  29  28 SW5       30.07R
SHERIDAN       CLEAR     53  36  52 CALM      30.09R
BUFFALO        CLEAR     55  28  35 NW7       30.14R
GILLETTE       CLEAR     57  29  34 CALM      30.08R
HULETT         FAIR      61  36  39 MISG      30.08
NEWCASTLE      FAIR      61  41  48 N8        30.03

$$
WYZ014>020-022>026-101>103-261200-
CENTRAL WYOMING

CITY           SKY/WX    TMP DP  RH WIND       PRES   REMARKS
BIG PINEY      PTCLDY    46  28  49 CALM      30.29R
PINEDALE       MOSUNNY   39  32  75 W6        30.29S WCI  35
DUBOIS         FAIR      45  23  42 NW9       30.25R
LANDER         PTCLDY    61  25  25 NW6       30.14R
RIVERTON       CLEAR     60  33  36 NW10      30.15R
CASPER         CLEAR     49  35  58 NW8       30.15R
DOUGLAS        CLEAR     57  41  55 NW7       30.12R

$$
WYZ021-027>030-104>119-261200-
SOUTHERN WYOMING

CITY           SKY/WX    TMP DP  RH WIND       PRES   REMARKS
EVANSTON       PTCLDY    60  32  34 N5        30.28R
KEMMERER       MOSUNNY   50  30  46 CALM      30.30R
FORT BRIDGER   FAIR      58  31  35 W6        30.30R
ROCK SPRINGS   MOCLDY    63  24  22 SW5       30.24R
DIXON          FAIR      57  44  61 CALM      30.25R
RAWLINS        PTCLDY    59  39  47 NW6       30.23R
SARATOGA       FAIR      52  45  76 NE5       30.26R
LARAMIE        PTCLDY    56  43  61 CALM      30.27R
CHEYENNE       CLEAR     68  45  43 NW13G23   30.15R
TORRINGTON     PTCLDY    65  50  58 NW14      30.00R
PINE BLUFFS    FAIR      66  46  48 NW12      30.08R

$$



USA.gov is the U.S. government's official web portal to all federal, state and local government web resources and services.